VTSPVTSG

Guest
Details From VTSP - Phuket Intl
To VTSG - Krabi
Flight Number -
Tags generated
Created
Modified
Stats Distance 40 nm / 75 km
Max Altitude 200 ft / 61 m
Waypoints 3
Social Downloads 4
Likes 0
Share VATSIM

Download

Looking for another format? Having issues loading an existing format? Contact us
Advertisement - Login to hide

Notes

Basic altitude profile: - Ascent Rate: 2500ft/min - Ascent Speed: 250kts - Cruise Altitude: 35000ft - Cruise Speed: 420kts - Descent Rate: 1500ft/min - Descent Speed: 250kts Options: - Use NATs: yes - Use PACOTS: yes - Use low airways: yes - Use high airways: yes

Route

VTSP KBI VTSG

ID Type Via Altitude Latitude Longitude Leg Dist Tot Dist Heading (true) Name
O VTSP APT - 0 ft / 0 m 8.11320˚ 98.31687˚ - 0 nm - Phuket Intl
KBI VOR - 200 ft / 61 m 8.10755˚ 98.97752˚ 39 nm 39 nm 90° / 91° KRABI VOR-DME
O VTSG APT - 0 ft / 0 m 8.09598˚ 98.98876˚ 0 nm 40 nm 136° / 136° Krabi

Altitude Profile

Advertisement - Login to hide

VTSP

Details ICAO VTSP (HKT)
Name Phuket Intl
Region Thailand
Timezone Asia/Bangkok (UTC+7.0)
Stats Elevation 82 ft / 25 m (AMSL)
Location 8.113199° 98.316871°
Runways 1
Magnetic Variation 0.423° W

METAR

VTSP 240430Z 10007KT 070V140 4000 RA SCT018 BKN100 25/23 Q1011 TL0500 4000 RA

Decode

TAF

TAF VTSP 232300Z 2400/2506 10008KT 9999 SCT020 TEMPO 2404/2408 VRB10G20KT 5000 TSRA FEW018CB SCT020 BKN100 BECMG 2410/2412 28008KT SCT020 BECMG 2414/2416 VRB02KT 8000 TEMPO 2420/2424 VRB10G20KT 5000 TSRA FEW018CB SCT020 BKN100

Decode

Departure Runways

ID Width Length Bearing (true) Bearing (mag) Surface Threshold Offset Overrun Length
09 148 ft / 45 m 9,870 ft / 3,008 m 84.45° 84.87° Asphalt 0 ft / 0 m 197 ft / 60 m
27 148 ft / 45 m 9,870 ft / 3,008 m 264.46° 264.88° Asphalt 0 ft / 0 m 197 ft / 60 m

VTSG

Details ICAO VTSG (KBV)
Name Krabi
Region Thailand
Timezone Asia/Bangkok (UTC+7.0)
Stats Elevation 82 ft / 25 m (AMSL)
Location 8.095977° 98.988763°
Runways 1
Magnetic Variation 0.379° W

METAR

VTSG 240400Z 19008KT 160V220 9000 SCT020 BKN100 28/25 Q1011 NOSIG

Decode

TAF

TAF VTSG 232300Z 2400/2424 00000KT 3000 BR FEW020 BECMG 2401/2403 06005KT 9999 NSW BKN020 TEMPO 2404/2408 VRB10G20KT 5000 TSRA FEW018CB SCT020 BKN100 BECMG 2410/2412 VRB02KT 8000 FEW020

Decode

Destination Runways

ID Width Length Bearing (true) Bearing (mag) Surface Threshold Offset Overrun Length
14 148 ft / 45 m 9,880 ft / 3,012 m 140.79° 141.17° Asphalt 0 ft / 0 m 197 ft / 60 m
32 148 ft / 45 m 9,880 ft / 3,012 m 320.80° 321.18° Asphalt 0 ft / 0 m 197 ft / 60 m

Approach Navaids

Runway Type Ident Frequency Range Bearing (true) Bearing (mag) Slope Elevation
32 Localiser IKBI 110.10 MHz 18 nm / 33 km 320.80° 321.17° - 71 ft / 22 m (AMSL)
32 Glidescope IKBI 110.10 MHz 10 nm / 19 km 320.80° 321.17° 3.00° 77 ft / 23 m (AMSL)
32 DME IKBI 110.10 MHz 18 nm / 33 km - - - 71 ft / 22 m (AMSL)

Popular Alternatives